Weather History for Morganton, NC

Change the Weather History Date:

Saturday, March 30, 2013

  Actual Average (KHKY) Record (KHKY)
Temperature  
Mean Temperature 50 °F -  
Max Temperature 64 °F 66 °F 85 °F (1985)
Min Temperature 37 °F 45 °F 21 °F (1964)
Degree Days  
Heating Degree Days 14    
Moisture  
Dew Point 34 °F    
Average Humidity 56    
Maximum Humidity 93    
Minimum Humidity 30    
Precipitation  
Precipitation 0.00 in - - ()
Sea Level Pressure  
Sea Level Pressure 30.19 in    
Wind  
Wind Speed 2 mph (SW)    
Max Wind Speed 12 mph    
Max Gust Speed -    
Visibility 10 miles    
Events      
Averages and records for this station are not official NWS values.
T = Trace of Precipitation, MM = Missing Value Source: NWS Daily Summary

Daily Weather History Graph

Daily Weather History Graph

Search for Another Location

Airport:

Trip Planner

Search our weather history database for the weather conditions in past years. The results will help you decide how hot, cold, wet, or windy it might be!

Date:

Astronomy

Mar. 30, 2013 Rise Set
Actual Time 7:15 AM EDT 7:46 PM EDT
Civil Twilight 6:49 AM EDT 8:12 PM EDT
Nautical Twilight 6:19 AM EDT 8:42 PM EDT
Astronomical Twilight 5:48 AM EDT 9:13 PM EDT
Moon 11:43 PM EDT (3/30) 9:16 AM EDT (3/30)
Length of Visible Light 13h 22m
Length of Day
12h 31m
Waning Gibbous, 86% of the Moon is Illuminated
Mar 30
Waning Gibbous
Apr 3
Last Quarter
Apr 10
New
Apr 18
First Quarter
Apr 25
Full

Hourly Weather History & Observations

Time (EDT) Temp. Windchill Dew Point Humidity Pressure Visibility Wind Dir Wind Speed Gust Speed Precip Events Conditions
12:15 AM 47.3 °F - 34.2 °F 60% 30.26 in 10.0 mi West 3.5 mph - N/A   Mostly Cloudy
12:35 AM 46.6 °F - 34.2 °F 62% 30.26 in 10.0 mi West 5.8 mph - N/A   Scattered Clouds
12:55 AM 46.4 °F - 34.3 °F 63% 30.24 in 10.0 mi Calm Calm - N/A   Scattered Clouds
1:15 AM 46.6 °F - 34.7 °F 63% 30.24 in 10.0 mi Calm Calm - N/A   Overcast
1:35 AM 46.0 °F 44.8 °F 35.1 °F 66% 30.24 in 10.0 mi West 3.5 mph - N/A   Overcast
2:15 AM 43.5 °F - 35.8 °F 74% 30.24 in 10.0 mi Calm Calm - N/A   Overcast
2:35 AM 42.1 °F - 36.5 °F 81% 30.23 in 10.0 mi Calm Calm - N/A   Scattered Clouds
2:55 AM 41.9 °F - 36.9 °F 82% 30.23 in 10.0 mi Calm Calm - N/A   Mostly Cloudy
3:15 AM 42.1 °F - 36.7 °F 81% 30.22 in 10.0 mi Calm Calm - N/A   Scattered Clouds
3:35 AM 40.3 °F - 36.3 °F 86% 30.22 in 10.0 mi Calm Calm - N/A   Mostly Cloudy
3:55 AM 40.5 °F - 36.7 °F 86% 30.23 in 10.0 mi Calm Calm - N/A   Overcast
4:15 AM 40.6 °F - 37.0 °F 87% 30.23 in 10.0 mi Calm Calm - N/A   Overcast
4:35 AM 40.8 °F - 37.0 °F 86% 30.22 in 10.0 mi Calm Calm - N/A   Overcast
4:55 AM 41.0 °F - 37.4 °F 87% 30.22 in 10.0 mi Calm Calm - N/A   Overcast
5:15 AM 39.6 °F - 36.5 °F 89% 30.22 in 10.0 mi Calm Calm - N/A   Mostly Cloudy
5:35 AM 38.7 °F - 35.4 °F 88% 30.23 in 10.0 mi Calm Calm - N/A   Scattered Clouds
5:55 AM 37.2 °F - 35.2 °F 93% 30.24 in 10.0 mi Calm Calm - N/A   Mostly Cloudy
6:15 AM 39.0 °F - 36.3 °F 90% 30.24 in 10.0 mi Calm Calm - N/A   Overcast
6:35 AM 40.5 °F 38.4 °F 36.1 °F 85% 30.24 in 10.0 mi NNE 3.5 mph - N/A   Overcast
6:55 AM 41.0 °F - 35.2 °F 80% 30.24 in 10.0 mi Calm Calm - N/A   Overcast
7:15 AM 40.5 °F - 35.8 °F 83% 30.24 in 10.0 mi Calm Calm - N/A   Overcast
7:35 AM 39.6 °F 37.4 °F 36.7 °F 89% 30.25 in 10.0 mi NW 3.5 mph - N/A   Overcast
7:55 AM 40.1 °F 38.0 °F 36.0 °F 85% 30.26 in 10.0 mi North 3.5 mph - N/A   Overcast
8:15 AM 42.1 °F 40.2 °F 35.6 °F 78% 30.26 in 10.0 mi North 3.5 mph - N/A   Overcast
8:35 AM 42.6 °F - 34.7 °F 74% 30.27 in 10.0 mi Calm Calm - N/A   Mostly Cloudy
8:55 AM 43.9 °F - 34.2 °F 69% 30.27 in 10.0 mi Calm Calm - N/A   Mostly Cloudy
9:15 AM 45.7 °F 43.4 °F 34.5 °F 65% 30.27 in 10.0 mi North 4.6 mph - N/A   Scattered Clouds
9:35 AM 48.7 °F - 34.0 °F 57% 30.26 in 10.0 mi North 3.5 mph - N/A   Clear
9:55 AM 50.9 °F - 32.0 °F 48% 30.27 in 10.0 mi Calm Calm - N/A   Clear
10:15 AM 52.2 °F - 31.1 °F 45% 30.26 in 10.0 mi NNE 4.6 mph - N/A   Clear
10:35 AM 53.8 °F - 27.3 °F 36% 30.25 in 10.0 mi North 4.6 mph - N/A   Clear
10:55 AM 54.5 °F - 25.7 °F 33% 30.25 in 10.0 mi NNW 3.5 mph - N/A   Clear
11:15 AM 54.9 °F - 25.0 °F 32% 30.24 in 10.0 mi WNW 3.5 mph - N/A   Clear
11:35 AM 55.4 °F - 25.7 °F 32% 30.23 in 10.0 mi WSW 3.5 mph - N/A   Clear
11:55 AM 56.3 °F - 26.8 °F 32% 30.23 in 10.0 mi West 3.5 mph - N/A   Clear
12:15 PM 57.6 °F - 28.0 °F 32% 30.22 in 10.0 mi NW 3.5 mph - N/A   Clear
12:35 PM 57.0 °F - 27.7 °F 33% 30.22 in 10.0 mi WSW 3.5 mph - N/A   Clear
12:55 PM 57.7 °F - 28.4 °F 33% 30.21 in 10.0 mi SW 3.5 mph - N/A   Clear
1:15 PM 59.7 °F - 29.8 °F 32% 30.20 in 10.0 mi West 5.8 mph - N/A   Clear
1:35 PM 59.9 °F - 29.8 °F 32% 30.19 in 10.0 mi NW 5.8 mph - N/A   Scattered Clouds
1:55 PM 60.3 °F - 30.2 °F 32% 30.18 in 10.0 mi WNW 4.6 mph - N/A   Clear
2:15 PM 60.6 °F - 30.7 °F 32% 30.17 in 10.0 mi Calm Calm - N/A   Clear
2:35 PM 60.1 °F - 31.5 °F 34% 30.17 in 10.0 mi WSW 5.8 mph - N/A   Clear
2:55 PM 61.5 °F - 32.0 °F 33% 30.17 in 10.0 mi SW 8.1 mph - N/A   Scattered Clouds
3:15 PM 61.9 °F - 32.0 °F 33% 30.16 in 10.0 mi South 4.6 mph - N/A   Scattered Clouds
3:35 PM 63.0 °F - 31.6 °F 31% 30.14 in 10.0 mi SSW 11.5 mph - N/A   Clear
3:55 PM 63.0 °F - 31.5 °F 31% 30.14 in 10.0 mi West 4.6 mph - N/A   Clear
4:15 PM 63.3 °F - 31.5 °F 30% 30.13 in 10.0 mi Calm Calm - N/A   Clear
4:35 PM 63.0 °F - 30.6 °F 30% 30.13 in 10.0 mi West 3.5 mph - N/A   Clear
4:55 PM 63.5 °F - 31.5 °F 30% 30.12 in 10.0 mi SSW 5.8 mph - N/A   Clear
5:15 PM 64.0 °F - 32.0 °F 30% 30.11 in 10.0 mi South 6.9 mph - N/A   Clear
5:35 PM 63.5 °F - 32.0 °F 31% 30.11 in 10.0 mi South 3.5 mph - N/A   Clear
5:55 PM 63.5 °F - 33.1 °F 32% 30.11 in 10.0 mi South 4.6 mph - N/A   Clear
6:15 PM 63.0 °F - 35.4 °F 36% 30.10 in 10.0 mi SSE 4.6 mph - N/A   Clear
6:35 PM 63.3 °F - 35.8 °F 36% 30.11 in 10.0 mi SSE 5.8 mph - N/A   Clear
6:55 PM 61.5 °F - 37.2 °F 41% 30.10 in 10.0 mi SE 3.5 mph - N/A   Clear
7:15 PM 60.4 °F - 37.9 °F 43% 30.11 in 10.0 mi SE 3.5 mph - N/A   Clear
7:35 PM 59.4 °F - 38.3 °F 46% 30.11 in 10.0 mi SE 3.5 mph - N/A   Clear
7:55 PM 57.9 °F - 39.2 °F 50% 30.11 in 10.0 mi SE 3.5 mph - N/A   Clear
8:15 PM 57.7 °F - 39.0 °F 50% 30.10 in 10.0 mi ESE 3.5 mph - N/A   Clear
8:35 PM 55.9 °F - 39.7 °F 55% 30.11 in 10.0 mi SE 3.5 mph - N/A   Clear
8:55 PM 55.2 °F - 39.9 °F 56% 30.11 in 10.0 mi ESE 3.5 mph - N/A   Scattered Clouds
9:15 PM 55.2 °F - 39.7 °F 56% 30.10 in 10.0 mi ESE 4.6 mph - N/A   Mostly Cloudy
9:35 PM 55.6 °F - 39.4 °F 55% 30.11 in 10.0 mi ESE 3.5 mph - N/A   Scattered Clouds
9:55 PM 55.4 °F - 39.2 °F 54% 30.11 in 10.0 mi ESE 3.5 mph - N/A   Clear
10:15 PM 55.8 °F - 38.8 °F 53% 30.11 in 10.0 mi Calm Calm - N/A   Clear
10:35 PM 52.9 °F - 39.7 °F 61% 30.12 in 10.0 mi Calm Calm - N/A   Clear
10:55 PM 49.6 °F - 40.1 °F 70% 30.11 in 10.0 mi Calm Calm - N/A   Clear
11:15 PM 48.0 °F - 39.7 °F 73% 30.10 in 10.0 mi Calm Calm - N/A   Clear
11:35 PM 46.4 °F - 39.6 °F 77% 30.10 in 10.0 mi Calm Calm - N/A   Clear
11:55 PM 45.0 °F - 38.8 °F 79% 30.09 in 10.0 mi Calm Calm - N/A   Clear